Regional Weather Roundup
Issued by NWS

Home | Current Version | Previous Version | Text Only | Print | Product List | Glossary Off
Versions: 1 2 3 4 5 6 7 8 9 10 11 12 13 14 15 16 17 18 19 20 21 22 23 24 25 26 27

000
ASUS45 KCYS 081310
RWRWY

WYOMING REGIONAL WEATHER ROUNDUP
NATIONAL WEATHER SERVICE CHEYENNE WY
600 AM MST THU DEC 08 2016

NOTE:  "FAIR" INDICATES FEW OR NO CLOUDS BELOW 12,000 FEET
WITH NO SIGNIFICANT WEATHER AND/OR OBSTRUCTIONS TO VISIBILITY.

WYZ001-081400-
YELLOWSTONE NATIONAL PARK

CITY           SKY/WX    TMP DP  RH WIND       PRES   REMARKS
LK YELLOWSTONE   N/A    -15 -19  82 NW3       30.16R
W YELLOWSTONE  NOT AVBL

$$
WYZ002>013-054>058-071-098>099-081400-
NORTHERN WYOMING

CITY           SKY/WX    TMP DP  RH WIND       PRES   REMARKS
JACKSON        FAIR     -22 -26  83 N7        30.28S WCI -39
CODY           FAIR     -12 -16  82 S7        30.36R WCI -27
GREYBULL       FAIR      -4 -10  75 S3        30.47S
WORLAND        FAIR      -9 -14  78 E3        30.43F
SHERIDAN       FAIR     -12 -19  71 CALM      30.47S
BUFFALO        FAIR      -3 -14  59 W7        30.38R WCI -16
GILLETTE       FAIR     -15 -18  86 S3        30.45R
HULETT         FAIR     -11 -17  77 S7        30.46S WCI -26
NEWCASTLE      FAIR      -9 -17  70 NW6       30.47S WCI -23

$$
WYZ014>020-022>026-101>103-081400-
CENTRAL WYOMING

CITY           SKY/WX    TMP DP  RH WIND       PRES   REMARKS
BIG PINEY      FAIR     -17 -22  78 NW6       30.24S WCI -32
PINEDALE       FAIR     -20 -26  76 W9        30.24R WCI -40
DUBOIS         FAIR      -9 -17  70 NW13      30.15S WCI -30
LANDER         FAIR      -3  -7  82 CALM      30.30S
RIVERTON       FAIR      -4  -8  83 SW5       30.32R WCI -15
CASPER         FAIR     -28 -33  77 CALM      30.36S
DOUGLAS        FAIR     -20 -27  70 CALM      30.43R

$$
WYZ021-027>030-104>119-081400-
SOUTHERN WYOMING

CITY           SKY/WX    TMP DP  RH WIND       PRES   REMARKS
EVANSTON       CLOUDY     2  -7  66 E8        30.17S WCI -12
KEMMERER         N/A     -8 -15  71 N12       30.18S WCI -27
FORT BRIDGER   PTSUNNY   -3  -7  84 NE3       30.24R
ROCK SPRINGS   FAIR      -6 -10  83 NE5       30.23S WCI -17
DIXON          FAIR      -6 -13  73 SE5       30.29S WCI -17
RAWLINS        FAIR     -16 -22  74 CALM      30.24S
SARATOGA       FAIR      -8 -15  71 CALM      30.24S
LARAMIE        FAIR     -15 -21  74 S7        30.21R WCI -31
CHEYENNE       FAIR     -14 -19  79 W7        30.30S WCI -30
TORRINGTON     FAIR     -10 -15  78 W3        30.49R
PINE BLUFFS    FAIR     -17 -22  76 MISG      30.41S

$$




USA.gov is the U.S. government's official web portal to all federal, state and local government web resources and services.